EW2664 Weather Reports


Display with metric or nautical units.
time (UTC)temp
F
wind
direction
speed
MPH
gust
MPH
rain 1hr
in
rain 24hr
in
rain mn
in
humidity
%
barometer
mb
20260507050024 76 86 0.0 0.0 0.00 0.00 0.00 73 1016.3
20260507044520 76 61 0.0 0.0 0.00 0.00 0.00 73 1016.4
20260507043027 76 61 0.0 0.0 0.00 0.00 0.00 73 1016.4
20260507041528 77 61 0.0 0.0 0.00 0.00 0.00 73 1016.6
20260507040012 77 61 0.0 0.0 0.00 0.00 0.00 72 1016.6
20260507034522 77 61 0.0 0.0 0.00 0.00 0.00 72 1016.6
20260507033021 77 107 0.0 0.0 0.00 0.00 0.00 72 1016.7
20260507031526 78 107 0.0 0.0 0.00 0.00 0.00 71 1016.7
20260507030028 78 129 0.0 0.0 0.00 0.00 0.00 71 1016.7
20260507024515 78 129 0.0 0.0 0.00 0.00 0.00 70 1016.7
20260507023016 78 117 0.0 0.0 0.00 0.00 0.00 69 1016.7
20260507021523 79 117 0.0 0.0 0.00 0.00 0.00 68 1016.8
20260507020043 79 138 0.0 0.0 0.00 0.00 0.00 67 1016.7
20260507014526 79 73 0.0 2.0 0.00 0.00 0.00 66 1016.6
20260507013020 80 157 0.0 2.0 0.00 0.00 0.00 65 1016.7
20260507011534 80 144 0.0 3.0 0.00 0.00 0.00 63 1016.7
20260507010029 80 124 0.0 2.0 0.00 0.00 0.00 60 1016.7
20260507004512 80 93 0.0 3.0 0.00 0.00 0.00 59 1016.6
20260507003012 81 156 0.0 4.0 0.00 0.00 0.00 60 1016.6
20260507001544 81 85 1.0 3.0 0.00 0.00 0.00 60 1016.5
20260507000024 81 76 1.0 6.0 0.00 0.00 0.00 63 1016.4
20260506234505 82 104 1.0 6.0 0.00 0.00 0.00 62 1016.3
20260506233012 82 111 1.0 7.0 0.00 0.00 0.00 63 1016.1
20260506231518 83 96 1.0 8.0 0.00 0.00 0.00 62 1016.0
20260506230026 84 119 0.0 6.0 0.00 0.00 0.00 62 1016.2
20260506224524 84 77 1.0 9.0 0.00 0.00 0.00 61 1015.9
20260506223010 85 125 3.0 8.0 0.00 0.00 0.00 59 1015.8
20260506221515 85 82 2.0 9.0 0.00 0.00 0.00 59 1015.6
20260506220022 86 159 1.0 11.0 0.00 0.00 0.00 56 1015.5
20260506214523 87 86 3.0 9.0 0.00 0.00 0.00 56 1015.3
20260506213026 88 59 1.0 4.0 0.00 0.00 0.00 53 1015.3
20260506211515 88 167 2.0 9.0 0.00 0.00 0.00 51 1015.3
20260506210043 88 89 3.0 7.0 0.00 0.00 0.00 50 1015.1
20260506204524 89 173 1.0 5.0 0.00 0.00 0.00 52 1015.1
20260506203027 89 86 1.0 6.0 0.00 0.00 0.00 52 1015.3
20260506201516 90 61 2.0 6.0 0.00 0.00 0.00 51 1015.5
20260506200017 90 104 2.0 5.0 0.00 0.00 0.00 49 1015.5
20260506194520 89 127 3.0 7.0 0.00 0.00 0.00 51 1015.6
20260506193034 89 49 3.0 8.0 0.00 0.00 0.00 52 1015.8
20260506190019 89 97 2.0 5.0 0.00 0.00 0.00 54 1016.2
20260506184525 89 40 2.0 6.0 0.00 0.00 0.00 53 1016.2
20260506183024 89 59 3.0 8.0 0.00 0.00 0.00 55 1016.5
20260506181536 89 181 2.0 9.0 0.00 0.00 0.00 57 1016.4
20260506180014 89 89 2.0 8.0 0.00 0.00 0.00 57 1016.5
20260506174519 89 187 1.0 7.0 0.00 0.00 0.00 57 1016.6
20260506173030 89 149 1.0 5.0 0.00 0.00 0.00 56 1016.8
20260506171532 89 82 1.0 6.0 0.00 0.00 0.00 55 1017.0
20260506170031 88 198 0.0 8.0 0.00 0.00 0.00 57 1017.1
20260506164538 89 103 2.0 6.0 0.00 0.00 0.00 55 1017.3
20260506163024 88 127 0.0 4.0 0.00 0.00 0.00 57 1017.3
20260506161524 87 74 1.0 7.0 0.00 0.00 0.00 59 1017.3
20260506160030 87 155 1.0 4.0 0.00 0.00 0.00 61 1017.4
20260506154528 87 103 2.0 4.0 0.00 0.00 0.00 60 1017.3
20260506153022 86 105 1.0 4.0 0.00 0.00 0.00 59 1017.3
20260506151526 86 101 0.0 5.0 0.00 0.00 0.00 64 1017.5
20260506150010 85 141 1.0 2.0 0.00 0.00 0.00 65 1017.3
20260506144522 85 67 1.0 6.0 0.00 0.00 0.00 65 1017.2
20260506143021 85 115 0.0 6.0 0.00 0.00 0.00 67 1017.0
20260506141511 84 111 0.0 6.0 0.00 0.00 0.00 70 1016.9
20260506140008 83 169 0.0 5.0 0.00 0.00 0.00 70 1017.0
20260506134512 83 167 1.0 5.0 0.00 0.00 0.00 71 1016.9
20260506133016 82 135 0.0 3.0 0.00 0.00 0.00 73 1016.8
20260506131521 82 159 0.0 4.0 0.00 0.00 0.00 74 1016.6
20260506130008 81 95 0.0 2.0 0.00 0.00 0.00 77 1016.7
20260506124510 79 161 0.0 2.0 0.00 0.00 0.00 79 1016.7
20260506123015 78 76 0.0 1.0 0.00 0.00 0.00 81 1016.9
20260506121520 78 92 0.0 2.0 0.00 0.00 0.00 83 1016.7
20260506120047 77 84 0.0 2.0 0.00 0.00 0.00 84 1016.8
20260506114509 76 84 0.0 2.0 0.00 0.00 0.00 86 1016.5
20260506113014 75 84 0.0 0.0 0.00 0.00 0.00 89 1016.4
20260506111519 73 84 0.0 0.0 0.00 0.00 0.00 90 1016.2
20260506110026 73 84 0.0 0.0 0.00 0.00 0.00 89 1016.1
20260506104518 73 84 0.0 0.0 0.00 0.00 0.00 89 1015.9
20260506103033 73 84 0.0 0.0 0.00 0.00 0.00 89 1015.8
20260506101516 73 84 0.0 0.0 0.00 0.00 0.00 88 1015.7
20260506100022 73 84 0.0 0.0 0.00 0.00 0.00 87 1015.6
20260506094524 73 84 0.0 0.0 0.00 0.00 0.00 87 1015.6
20260506093018 74 84 0.0 0.0 0.00 0.00 0.00 87 1015.6
20260506091518 74 84 0.0 0.0 0.00 0.00 0.00 86 1015.5
20260506090023 74 84 0.0 0.0 0.00 0.00 0.00 85 1015.4
20260506084554 75 84 0.0 0.0 0.00 0.00 0.00 85 1015.4
20260506083029 75 73 0.0 2.0 0.00 0.00 0.00 85 1015.5
20260506081517 75 73 0.0 2.0 0.00 0.00 0.00 84 1015.4
20260506073028 76 65 0.0 2.0 0.00 0.00 0.00 83 1015.2
20260506071516 76 76 0.0 2.0 0.00 0.00 0.00 83 1015.3
20260506061528 77 111 0.0 2.0 0.00 0.00 0.00 81 1015.7